Temp
20 20 20 20 16 13 16 19 18 20 20 21 21 21 20 20 19 17 21 21 20 20 19 18 17 17 17 17 17 17 17 17 17 17 16 16 16 16 16 16 15 15 14 15 15 15 16 15 15
20 20 20 20 14 14 15 17 20 20 21 21 21 21 20 20 21 21 21 21 21 20 19 18 18 18 17 17 17 17 17 17 17 17 16 16 16 16 16 16 15 15 14 14 15 15 15 15 15
20 21 21 12 11 15 16 18 19 20 21 21 21 21 21 21 21 21 21 21 21 20 19 19 18 18 17 17 17 17 17 17 16 16 16 16 16 16 15 15 15 14 14 14 14 14 15 15 15
20 20 18 14 19 19 19 19 19 20 21 21 21 20 21 21 21 21 21 21 21 20 19 18 18 18 17 17 17 17 17 16 16 16 16 15 15 16 15 14 13 13 13 15 15 14 15 15 15
20 19 13 15 17 18 18 19 20 19 20 21 20 20 21 21 21 21 21 21 21 21 20 19 18 17 17 17 17 17 17 17 16 16 16 16 15 15 15 14 13 12 13 16 15 15 15 15 15
19 17 14 16 18 18 19 20 20 20 20 21 21 20 21 21 21 21 21 21 20 20 19 19 18 18 18 17 17 17 16 16 16 16 16 15 15 15 14 14 14 14 14 16 15 15 15 15 15
16 12 14 16 17 19 19 20 20 19 19 20 21 19 21 21 21 21 21 20 20 20 20 19 19 18 17 17 16 16 16 16 15 15 15 14 14 14 14 14 14 15 15 15 15 15 15 15 15
19 13 16 16 16 19 19 20 20 20 20 20 21 18 20 20 20 20 20 20 20 20 20 20 19 18 18 17 16 16 16 15 15 15 15 14 14 14 14 14 13 14 15 15 15 15 15 15 15
18 12 14 17 18 19 19 18 20 20 20 20 20 20 20 20 19 20 20 19 19 19 19 19 19 19 18 18 17 16 15 14 14 14 13 13 13 13 13 13 13 13 14 14 15 15 15 15 15
16 12 15 17 17 18 18 18 18 19 19 18 19 19 19 19 19 18 18 18 19 18 18 18 17 17 17 17 17 16 16 14 13 13 13 12 12 12 13 13 12 13 13 13 14 14 15 15 15
15 14 15 17 18 18 18 17 17 17 16 19 17 19 19 20 20 19 19 19 20 20 19 18 18 17 16 16 17 16 16 14 13 14 12 12 12 12 12 13 12 12 12 13 13 14 14 14 14
16 17 17 18 18 17 17 18 17 17 19 18 18 18 19 19 19 19 19 19 19 19 19 19 19 19 18 17 16 16 15 15 14 13 13 13 12 12 12 11 11 12 12 11 12 13 14 14 14
16 16 17 18 18 17 17 17 16 18 20 18 18 17 18 17 18 17 17 17 18 18 19 19 19 19 18 18 16 16 15 15 14 13 13 12 12 11 11 11 11 11 10 11 11 11 12 13 13
16 16 16 18 18 17 16 15 17 19 18 17 17 18 16 15 15 15 16 16 16 17 17 17 18 18 18 18 16 15 14 14 13 13 12 12 12 11 11 11 11 11 10 10 10 10 11 11 12
16 14 13 15 16 15 16 16 14 20 17 17 17 16 15 15 14 14 15 16 16 16 16 16 17 18 18 17 16 15 13 13 12 12 11 11 11 11 11 10 10 10 10 10 10 10 10 11 11
14 13 13 16 15 16 16 15 16 19 17 15 13 12 12 13 13 13 14 15 15 14 13 13 14 15 16 16 15 14 13 12 12 11 11 11 11 11 11 11 10 10 10 10 9 9 9 10 10
11 12 12 13 15 15 15 14 16 16 16 12 10 9 10 10 10 11 11 12 13 13 12 12 12 14 14 14 14 13 12 11 11 11 11 10 11 11 11 11 11 10 10 10 10 10 9 9 9
12 11 12 13 15 15 15 13 12 17 14 12 8 8 8 8 8 9 9 10 10 11 11 11 11 11 12 13 12 11 11 11 10 10 10 10 10 10 10 10 9 9 10 10 10 9 8 8 8
13 12 13 12 13 14 12 11 11 14 12 8 7 6 6 7 6 7 8 9 9 10 11 11 11 11 10 10 11 10 10 9 9 9 9 9 9 10 10 9 9 9 9 8 7 8 7 7 7
11 12 10 11 12 12 11 12 11 11 9 9 6 5 5 5 6 6 7 8 9 10 10 11 11 10 10 10 9 9 8 9 9 8 8 8 8 8 9 9 9 9 8 7 7 6 6 6 6
11 10 11 12 12 12 11 10 11 6 5 5 5 5 5 5 5 6 7 8 8 9 10 10 11 11 10 10 9 8 8 7 7 7 7 7 7 6 7 7 7 7 7 7 6 6 5 5 5
11 10 11 11 11 10 11 9 10 9 5 3 3 4 4 4 5 5 6 7 8 8 8 9 9 10 10 9 9 9 9 8 7 6 6 6 6 5 5 5 5 5 5 5 5 5 4 4 4
11 11 10 12 10 10 10 9 9 8 7 3 2 3 3 3 4 5 6 6 6 7 8 8 9 9 9 9 9 9 9 7 5 5 5 5 5 4 4 4 4 4 4 4 4 3 3 3 3
10 11 9 7 7 7 9 10 9 9 9 4 2 3 3 3 4 4 5 5 6 6 7 8 8 8 8 8 8 8 7 6 5 5 5 4 4 4 3 3 2 2 2 2 2 2 2 2 2
11 10 9 8 6 8 7 7 10 9 5 5 3 2 3 3 4 4 5 5 6 6 7 7 7 8 8 8 8 7 7 6 6 5 4 3 3 3 3 2 2 2 2 1 1 1 1 1 1
8 10 8 9 7 8 7 8 10 4 3 5 4 4 3 3 4 4 4 5 5 5 6 6 6 6 6 6 5 5 5 5 4 3 2 2 2 2 1 1 1 1 1 1 1 0 0 0 0
9 9 9 8 -1 4 8 8 5 3 2 2 2 3 3 3 3 4 4 5 5 5 5 5 4 4 4 4 3 3 3 2 2 1 1 1 1 1 1 1 1 1 1 0 0 0 0 -0 -0
10 8 8 5 6 4 7 7 8 4 3 1 1 3 3 3 4 5 5 5 4 4 4 3 3 3 2 1 1 1 1 0 -0 -0 -0 -0 -0 -0 -0 -0 -0 -0 -0 -1 -1 -1 -1 -1 -0
8 8 8 7 6 6 4 8 6 6 3 2 2 4 4 5 5 5 5 4 3 2 2 2 2 1 1 0 -0 -1 -1 -1 -1 -1 -1 -1 -1 -1 -1 -1 -1 -1 -1 -1 -1 -1 -1 -1 -1
8 8 8 8 7 4 6 9 4 6 4 4 4 5 5 5 6 5 4 4 3 2 2 2 1 0 -0 -0 -0 -1 -1 -1 -1 -1 -2 -2 -2 -2 -2 -2 -2 -2 -2 -2 -2 -2 -2 -2 -1
Height
1534 1534 1533 1533 1543 1548 1557 1547 1542 1539 1538 1537 1537 1537 1537 1536 1538 1550 1535 1534 1535 1535 1536 1538 1541 1543 1546 1548 1550 1551 1553 1554 1555 1556 1556 1557 1557 1557 1557 1558 1559 1559 1559 1558 1558 1558 1558 1558 1558
1534 1534 1534 1532 1553 1567 1562 1546 1542 1539 1538 1537 1538 1538 1538 1538 1536 1536 1536 1536 1536 1536 1537 1539 1541 1543 1545 1547 1549 1551 1553 1554 1555 1555 1556 1557 1557 1557 1558 1559 1559 1560 1560 1559 1559 1559 1559 1558 1558
1534 1534 1534 1541 1560 1564 1559 1543 1541 1539 1538 1538 1538 1538 1538 1538 1538 1538 1537 1537 1537 1537 1537 1539 1541 1543 1545 1547 1548 1550 1552 1553 1554 1555 1556 1556 1557 1557 1558 1559 1559 1560 1560 1559 1559 1559 1559 1559 1559
1535 1536 1538 1550 1550 1545 1542 1540 1540 1539 1539 1539 1539 1539 1540 1539 1538 1538 1537 1537 1537 1538 1538 1539 1541 1543 1545 1547 1549 1550 1551 1552 1553 1554 1555 1556 1556 1558 1558 1559 1559 1560 1559 1558 1559 1559 1559 1559 1558
1535 1536 1549 1553 1551 1544 1540 1539 1539 1539 1540 1539 1540 1540 1539 1538 1538 1538 1538 1538 1538 1537 1538 1539 1540 1541 1544 1546 1547 1549 1550 1552 1553 1554 1555 1555 1556 1557 1558 1559 1559 1560 1558 1557 1558 1558 1558 1558 1558
1537 1540 1557 1559 1549 1542 1539 1539 1539 1539 1540 1540 1540 1540 1540 1538 1538 1538 1538 1538 1538 1538 1538 1538 1539 1540 1542 1544 1546 1548 1549 1551 1552 1553 1554 1555 1556 1556 1558 1558 1557 1558 1557 1558 1558 1558 1558 1557 1557
1539 1547 1557 1554 1552 1545 1541 1540 1540 1541 1541 1540 1541 1540 1540 1539 1539 1539 1538 1538 1538 1538 1538 1538 1539 1539 1540 1542 1544 1546 1548 1549 1551 1552 1553 1555 1555 1555 1558 1558 1558 1558 1557 1557 1558 1558 1558 1558 1557
1540 1545 1551 1552 1555 1547 1542 1541 1541 1541 1541 1541 1541 1541 1539 1538 1538 1537 1537 1537 1537 1537 1538 1538 1538 1538 1539 1540 1542 1543 1545 1547 1549 1551 1552 1553 1555 1554 1556 1558 1558 1558 1558 1558 1558 1558 1558 1558 1558
1542 1554 1559 1549 1548 1545 1542 1542 1541 1540 1539 1540 1540 1539 1538 1537 1537 1536 1536 1536 1536 1536 1536 1537 1537 1536 1537 1538 1540 1541 1543 1545 1546 1548 1551 1552 1553 1553 1554 1556 1557 1557 1558 1558 1557 1557 1558 1558 1558
1542 1556 1551 1544 1543 1543 1542 1542 1541 1541 1539 1537 1538 1537 1536 1535 1534 1534 1533 1533 1533 1533 1534 1534 1534 1535 1536 1537 1538 1539 1540 1542 1544 1546 1548 1550 1551 1552 1553 1554 1556 1556 1556 1557 1557 1557 1558 1557 1558
1543 1549 1543 1541 1541 1541 1541 1541 1540 1540 1537 1536 1537 1533 1532 1531 1530 1530 1530 1530 1530 1530 1530 1531 1532 1532 1533 1535 1536 1537 1538 1539 1542 1544 1546 1547 1549 1550 1551 1553 1554 1554 1555 1556 1556 1557 1557 1557 1557
1544 1541 1542 1541 1540 1541 1540 1539 1539 1538 1535 1535 1534 1532 1531 1530 1529 1529 1528 1528 1527 1527 1527 1527 1527 1529 1530 1532 1533 1535 1536 1537 1538 1541 1544 1546 1546 1548 1549 1550 1551 1552 1553 1554 1554 1555 1556 1556 1556
1543 1541 1540 1539 1538 1538 1538 1537 1539 1534 1534 1535 1533 1532 1531 1530 1528 1528 1527 1527 1526 1525 1524 1524 1524 1524 1526 1527 1529 1532 1534 1535 1536 1538 1541 1542 1544 1546 1547 1548 1549 1550 1550 1551 1552 1552 1553 1554 1554
1542 1542 1540 1537 1535 1535 1535 1536 1536 1531 1532 1533 1534 1532 1530 1529 1529 1528 1526 1525 1524 1523 1522 1521 1521 1521 1521 1523 1526 1528 1531 1533 1535 1536 1538 1539 1541 1543 1545 1545 1546 1547 1548 1548 1549 1549 1550 1550 1551
1542 1543 1540 1533 1531 1532 1533 1537 1534 1529 1531 1531 1531 1530 1530 1528 1528 1527 1526 1525 1523 1520 1518 1518 1518 1517 1518 1519 1522 1525 1528 1531 1533 1534 1536 1538 1539 1541 1542 1543 1544 1545 1545 1546 1545 1546 1546 1547 1548
1545 1545 1550 1532 1532 1531 1532 1540 1527 1528 1528 1528 1528 1528 1528 1529 1528 1526 1526 1524 1523 1521 1519 1516 1514 1514 1516 1517 1518 1521 1524 1528 1531 1531 1533 1535 1537 1539 1540 1540 1541 1543 1543 1543 1543 1543 1544 1544 1544
1551 1555 1552 1541 1531 1533 1535 1538 1526 1527 1528 1528 1529 1529 1529 1528 1528 1527 1526 1524 1522 1521 1520 1519 1517 1515 1515 1517 1519 1520 1522 1525 1528 1530 1531 1532 1534 1535 1537 1538 1538 1539 1539 1539 1540 1541 1541 1541 1541
1552 1554 1549 1545 1532 1531 1533 1535 1529 1525 1526 1526 1528 1529 1530 1530 1529 1528 1526 1526 1523 1521 1519 1519 1518 1519 1518 1517 1520 1521 1523 1525 1527 1529 1530 1532 1532 1532 1533 1533 1534 1534 1534 1535 1536 1537 1538 1537 1538
1538 1544 1544 1539 1532 1534 1535 1535 1528 1523 1525 1525 1526 1527 1530 1530 1531 1528 1527 1526 1525 1525 1522 1519 1520 1518 1520 1521 1520 1522 1525 1526 1528 1529 1530 1531 1531 1531 1531 1530 1531 1531 1532 1532 1533 1533 1534 1534 1535
1541 1542 1544 1539 1532 1536 1534 1532 1525 1523 1522 1524 1527 1529 1528 1529 1531 1531 1529 1528 1526 1525 1525 1523 1522 1523 1522 1522 1524 1523 1524 1526 1527 1528 1529 1529 1529 1529 1529 1529 1529 1529 1530 1530 1530 1530 1530 1531 1532
1540 1543 1540 1539 1533 1532 1533 1533 1523 1526 1525 1524 1527 1529 1530 1529 1529 1530 1530 1529 1529 1527 1526 1525 1525 1525 1527 1527 1526 1528 1528 1527 1528 1529 1529 1529 1529 1528 1528 1527 1526 1526 1527 1528 1528 1527 1527 1527 1528
1538 1530 1531 1533 1537 1543 1532 1543 1522 1520 1526 1528 1529 1530 1531 1529 1529 1529 1529 1529 1529 1528 1530 1529 1527 1527 1528 1531 1531 1529 1530 1530 1530 1530 1529 1530 1530 1529 1527 1526 1525 1524 1524 1525 1526 1525 1525 1524 1524
1530 1528 1531 1532 1538 1538 1536 1543 1525 1521 1526 1530 1531 1532 1532 1533 1531 1529 1528 1529 1530 1532 1532 1530 1530 1531 1531 1533 1534 1533 1532 1532 1532 1533 1532 1530 1529 1529 1528 1526 1524 1522 1522 1523 1522 1522 1523 1522 1522
1524 1529 1536 1542 1545 1553 1533 1533 1526 1519 1516 1526 1530 1531 1532 1532 1530 1530 1532 1531 1530 1532 1533 1531 1532 1532 1532 1533 1534 1536 1532 1533 1533 1533 1533 1532 1531 1529 1528 1527 1525 1523 1521 1520 1520 1519 1518 1518 1518
1523 1530 1548 1553 1560 1544 1535 1536 1514 1510 1516 1517 1520 1525 1532 1535 1534 1532 1531 1532 1531 1531 1531 1532 1532 1532 1533 1533 1535 1536 1534 1533 1533 1533 1535 1533 1530 1529 1527 1527 1526 1524 1521 1520 1520 1519 1516 1514 1513
1522 1522 1538 1546 1553 1541 1534 1529 1508 1514 1511 1508 1513 1521 1528 1531 1531 1533 1534 1534 1533 1532 1531 1532 1533 1532 1533 1533 1534 1532 1532 1533 1533 1533 1534 1535 1528 1528 1528 1526 1526 1524 1521 1520 1520 1519 1516 1514 1512
1522 1526 1520 1530 1571 1559 1525 1515 1518 1522 1518 1517 1521 1523 1523 1527 1529 1532 1534 1534 1533 1534 1533 1533 1533 1534 1533 1533 1533 1532 1531 1532 1533 1534 1533 1531 1528 1528 1527 1525 1524 1522 1519 1518 1517 1516 1513 1510 1509
1513 1514 1531 1540 1546 1558 1523 1521 1507 1519 1520 1519 1522 1523 1524 1526 1527 1529 1531 1533 1533 1532 1533 1533 1533 1532 1531 1531 1531 1531 1531 1531 1530 1530 1530 1528 1527 1525 1523 1522 1520 1519 1515 1514 1513 1511 1509 1506 1504
1515 1518 1516 1523 1528 1531 1541 1509 1504 1504 1512 1517 1515 1519 1522 1523 1524 1526 1528 1529 1530 1530 1530 1531 1530 1530 1530 1530 1530 1530 1530 1529 1528 1528 1527 1525 1523 1520 1519 1518 1516 1514 1511 1509 1507 1505 1501 1499 1496
1504 1507 1507 1514 1521 1530 1522 1498 1502 1502 1505 1508 1512 1516 1519 1521 1522 1523 1524 1525 1525 1526 1527 1528 1528 1528 1528 1528 1528 1528 1528 1527 1525 1524 1522 1521 1519 1517 1515 1513 1511 1509 1506 1504 1500 1496 1493 1490 1486
Wind_Speed
4 4 5 1 4 5 2 0 1 2 2 1 1 2 2 2 3 3 2 0 1 4 11 18 19 17 17 16 14 13 11 8 7 7 6 6 6 5 3 2 3 5 5 1 2 3 2 2 2
3 4 2 2 5 4 4 4 1 1 2 2 2 2 1 2 1 2 2 3 2 3 6 16 18 17 18 17 14 12 11 9 8 7 7 6 6 5 4 4 4 5 3 2 1 2 1 1 1
3 3 2 4 4 3 4 3 2 3 2 3 2 1 1 2 1 2 3 3 2 2 6 10 18 18 17 16 15 13 12 10 9 9 8 8 8 7 6 6 5 7 8 5 4 4 3 3 3
2 2 5 5 2 2 2 2 2 1 2 4 4 2 2 2 2 1 4 6 4 2 5 7 14 19 19 18 17 15 14 13 12 11 10 9 9 8 8 6 6 9 11 11 8 7 6 6 7
3 3 4 3 2 3 2 1 2 3 2 3 4 4 6 4 3 1 2 7 7 3 4 8 11 17 21 21 21 19 17 16 14 13 12 11 11 10 8 8 9 8 9 9 9 9 8 8 8
3 3 5 1 3 4 3 1 1 3 3 2 2 6 5 5 3 3 4 7 7 5 4 7 10 13 18 22 22 21 20 18 16 15 13 12 11 12 8 5 8 10 10 9 8 9 9 9 9
5 4 3 1 3 4 3 3 2 2 2 1 2 3 4 8 7 6 7 7 9 7 6 7 9 12 16 21 22 22 21 19 17 16 14 13 12 14 9 9 9 9 12 13 10 9 9 8 8
3 4 2 1 1 1 5 4 2 2 1 1 1 2 3 12 8 10 10 8 10 10 8 8 10 12 14 17 22 23 22 21 19 18 17 15 14 18 15 12 11 11 11 13 11 9 9 8 8
2 4 1 2 2 2 6 6 2 7 5 6 6 6 9 12 13 11 12 11 12 12 11 11 10 12 14 15 17 21 22 22 20 20 18 17 17 20 19 15 14 13 12 12 11 10 10 10 9
4 3 6 4 3 2 5 2 6 5 12 4 10 8 8 10 10 9 13 15 15 14 15 14 13 12 13 14 16 19 21 22 23 21 19 19 19 21 22 18 17 17 15 14 14 12 11 12 11
3 4 5 4 6 3 3 4 2 2 6 7 12 10 7 6 7 9 9 11 13 14 15 16 16 15 14 13 14 17 20 22 23 23 20 21 20 21 22 21 19 19 19 17 16 15 13 14 13
0 5 5 2 5 3 4 4 6 7 8 11 5 5 6 6 6 6 8 9 9 10 12 15 16 15 15 15 14 13 16 19 22 24 24 23 21 22 23 23 22 21 19 19 18 16 15 16 16
2 4 6 12 14 11 10 12 8 20 14 4 2 6 5 4 5 7 8 7 9 11 14 16 16 15 15 15 15 13 13 13 16 21 23 25 25 22 23 23 23 22 21 20 19 18 17 18 19
2 5 10 12 20 12 6 3 1 3 4 2 2 8 9 5 4 4 6 8 9 10 12 13 15 17 17 17 15 14 12 10 9 11 13 17 21 23 21 24 24 24 23 21 20 19 20 20 20
2 5 7 12 6 5 6 0 7 8 6 3 4 4 4 6 7 7 8 10 11 12 12 12 13 14 15 15 14 13 13 10 7 6 8 10 14 17 20 20 22 23 24 25 23 19 20 22 23
3 3 4 3 3 1 6 8 7 6 4 1 3 2 0 3 5 6 6 7 9 11 9 8 7 8 9 10 10 12 12 9 8 8 8 10 14 16 17 19 22 21 23 24 24 22 21 21 23
4 3 4 8 3 2 2 6 9 6 4 4 5 4 3 4 5 6 7 7 6 6 6 6 5 1 2 5 6 8 9 8 8 8 9 10 12 13 14 16 16 18 21 22 23 24 22 24 25
5 4 4 6 2 2 3 8 9 22 8 7 8 7 7 8 11 10 9 8 7 6 6 7 7 8 6 4 3 5 7 6 5 7 8 10 10 10 10 11 12 14 17 17 21 20 21 24 25
4 4 5 4 4 1 7 6 12 13 2 9 11 11 11 12 12 12 12 12 11 11 11 11 9 9 5 5 5 5 5 6 3 0 3 6 9 11 12 10 11 11 14 15 16 17 18 21 23
2 1 7 5 4 6 7 8 10 4 1 6 15 13 14 15 13 15 17 17 18 19 19 19 18 15 13 11 9 9 7 7 6 3 4 5 6 8 10 12 15 16 15 16 18 16 18 19 20
4 7 3 6 4 3 4 6 7 3 10 14 14 15 14 14 15 15 16 18 19 21 21 20 21 20 19 16 12 9 7 7 4 1 3 4 5 6 9 11 12 13 15 18 18 18 17 19 21
5 8 8 7 3 5 3 5 5 5 4 6 14 15 15 14 14 15 15 15 16 19 18 18 18 18 19 16 14 13 13 10 10 8 8 7 6 5 6 8 10 12 14 14 15 19 20 20 20
6 2 5 2 2 2 3 2 6 5 3 5 10 14 14 13 13 14 14 14 15 15 15 16 16 17 17 14 14 14 14 15 13 12 9 9 9 8 8 8 7 8 9 12 15 16 18 21 24
4 4 6 4 2 1 9 8 3 4 2 5 11 16 17 16 14 13 12 12 13 13 13 14 15 18 17 15 15 13 12 11 8 9 9 10 10 10 11 13 13 13 12 11 12 13 14 18 21
3 6 2 3 2 6 1 2 7 1 2 6 18 24 19 15 13 13 12 11 11 10 11 11 11 11 9 7 6 6 6 6 7 9 10 9 10 12 13 14 15 15 15 16 16 16 15 14 15
7 8 6 7 3 4 1 6 5 1 2 8 28 26 21 18 15 13 11 9 7 7 8 6 4 4 3 1 1 2 2 4 6 7 9 11 13 14 14 14 15 17 18 18 19 19 19 18 18
5 4 4 5 3 2 4 4 0 2 4 11 19 22 22 20 17 14 10 7 6 5 4 2 1 2 3 2 2 2 2 2 3 5 6 9 10 11 13 15 16 17 19 20 21 22 23 23 23
3 5 3 2 2 4 4 6 5 7 7 7 11 23 21 19 17 15 13 11 9 8 7 4 3 3 3 3 2 2 3 4 6 8 10 12 14 15 17 19 21 22 23 24 25 26 27 29 29
2 2 3 3 4 5 2 7 4 7 9 13 19 25 23 22 18 16 15 14 13 11 8 6 5 4 3 1 1 3 5 7 9 12 14 16 18 19 21 22 24 26 28 31 33 34 36 37 36
2 6 7 6 7 3 2 12 3 3 12 19 21 24 22 19 17 17 18 18 17 14 10 8 7 6 4 3 3 5 8 11 13 16 18 20 22 22 24 26 29 30 32 35 38 41 41 43 44
Wind_Direction
321 318 328 308 54 64 330 35 274 339 336 328 55 79 173 180 157 206 314 6 340 190 192 188 192 195 197 199 203 203 203 207 217 215 211 209 208 212 215 202 151 243 283 297 73 76 83 98 108
343 342 358 64 82 66 283 265 237 261 350 36 67 48 57 269 258 316 350 334 319 184 198 201 198 202 202 203 203 208 216 226 233 241 242 237 234 236 235 241 227 258 278 216 254 5 20 125 140
7 11 33 86 102 155 190 235 268 330 24 14 20 11 345 327 331 19 358 1 331 250 206 201 206 209 211 212 214 218 226 237 245 243 241 241 242 241 251 255 234 221 236 261 268 273 289 273 255
352 30 60 80 123 244 228 220 222 348 23 26 13 14 321 295 316 94 38 30 2 258 225 209 210 217 219 222 226 232 239 242 243 245 247 247 248 264 271 257 232 229 252 260 266 266 271 272 275
30 55 55 83 284 271 254 217 161 88 66 356 5 326 310 306 247 186 21 25 7 326 222 220 223 220 224 229 232 236 239 244 249 250 248 248 260 268 267 275 246 237 252 275 263 269 276 279 281
50 52 57 130 278 282 286 76 107 69 28 21 17 334 313 321 204 245 307 348 353 323 271 234 230 231 230 233 237 241 242 243 244 245 248 254 266 266 277 286 267 253 263 284 274 268 269 273 274
96 78 167 178 300 329 328 3 42 104 358 206 348 333 322 17 319 311 294 324 340 337 305 275 248 237 234 237 241 243 245 246 245 245 244 249 260 260 262 269 288 301 295 299 289 278 274 274 273
65 88 101 246 269 308 345 3 19 29 310 349 344 268 292 328 336 325 286 287 318 316 312 304 276 257 246 240 237 242 246 245 244 245 246 247 246 255 260 264 277 291 301 303 296 284 275 269 257
69 61 181 221 139 286 351 13 357 327 287 296 275 281 308 321 321 326 316 288 293 288 288 291 283 270 261 254 247 243 243 245 244 245 243 247 247 253 260 264 271 282 295 304 294 282 275 266 255
88 109 213 215 187 234 305 288 315 324 315 325 342 322 308 304 306 302 296 287 287 283 277 273 268 268 271 265 257 249 247 239 238 239 238 242 246 246 257 261 267 273 280 292 293 280 274 265 258
156 187 194 237 206 251 260 278 271 273 315 329 345 340 344 326 302 297 293 287 285 279 269 264 264 261 254 258 268 262 256 249 238 238 238 240 245 249 250 252 259 268 274 283 290 284 275 263 256
326 255 243 260 228 301 290 293 289 248 255 328 359 35 359 337 322 297 276 278 288 287 275 260 258 258 257 257 258 266 267 263 252 241 241 244 246 246 251 255 258 262 272 277 282 286 273 264 258
202 295 277 278 279 282 279 275 269 280 293 286 279 344 351 334 291 287 300 297 291 287 285 276 263 251 245 246 252 260 270 275 266 256 254 253 254 252 259 259 262 265 271 277 280 283 278 268 261
214 275 285 289 278 279 237 259 197 293 144 75 293 328 332 334 323 297 279 286 293 291 282 278 273 265 254 243 240 250 265 280 287 271 264 258 257 255 271 263 265 268 276 280 288 281 277 267 260
318 333 326 265 273 218 172 277 230 234 314 105 299 299 305 314 318 315 310 309 311 311 299 277 268 265 257 243 234 236 252 262 277 300 285 274 265 264 265 268 269 274 276 277 279 284 285 279 272
12 46 349 285 175 206 155 262 255 276 305 90 186 184 218 343 340 336 336 328 321 324 327 328 290 272 257 238 227 224 231 248 259 252 260 259 262 263 271 274 273 278 278 279 279 276 289 287 280
4 240 220 314 221 130 156 258 276 4 351 154 147 131 110 83 52 32 19 10 9 10 18 27 35 42 180 216 225 215 213 219 240 245 252 253 255 260 269 275 275 276 274 274 273 272 284 290 289
205 212 237 244 269 156 202 258 285 286 291 189 157 140 112 85 63 56 53 47 49 53 59 65 74 80 87 115 160 186 194 183 237 261 270 269 265 255 265 278 281 277 290 267 266 281 288 291 292
161 187 213 250 257 234 244 245 268 275 203 168 167 137 111 97 83 83 78 75 73 74 83 84 89 92 112 123 128 133 165 156 172 147 286 275 274 276 272 278 280 280 271 293 299 294 291 293 295
216 279 261 287 273 174 271 269 266 354 84 241 166 140 126 115 103 89 86 84 81 79 77 77 77 78 85 92 101 115 141 162 167 188 244 273 274 272 269 271 274 282 281 285 290 294 292 289 292
206 212 224 226 323 291 331 288 249 76 83 114 141 143 133 127 116 105 97 88 85 82 78 77 74 73 69 71 80 87 102 120 141 260 293 293 282 277 278 270 267 272 281 279 279 282 286 286 282
215 202 213 227 141 231 141 276 289 170 115 99 140 148 144 139 127 116 108 104 93 85 80 77 76 75 71 67 71 78 82 83 68 50 32 14 2 336 304 290 289 284 276 276 284 285 283 282 282
235 128 174 205 178 66 286 320 256 116 210 173 163 154 152 146 138 126 116 104 94 90 83 79 73 71 67 60 56 55 56 58 58 55 50 43 31 21 15 2 344 327 317 304 289 278 283 284 284
132 87 46 51 62 291 222 191 256 186 168 139 173 170 167 161 150 136 120 111 105 95 86 77 66 57 51 44 41 37 46 51 49 45 34 35 35 33 28 27 26 25 17 1 340 318 301 281 278
115 97 328 333 344 236 15 140 247 17 24 190 175 176 174 169 160 152 144 135 120 109 93 84 68 49 53 42 30 26 26 19 13 14 13 12 16 15 14 9 6 6 9 6 2 359 354 339 315
181 161 163 217 212 256 269 241 256 305 346 169 175 171 173 178 179 173 165 149 133 127 123 113 76 59 72 75 99 76 38 10 4 5 3 357 5 2 359 358 354 352 350 346 345 345 344 342 337
198 187 171 107 61 22 233 295 290 44 59 127 153 167 180 188 188 189 185 184 186 174 162 166 213 186 171 166 131 80 53 33 2 355 349 346 348 341 343 341 340 338 338 335 332 330 329 327 326
180 162 74 8 239 245 262 274 232 220 197 166 171 192 191 193 200 203 208 209 207 208 214 226 220 179 157 148 121 56 25 12 2 354 342 343 338 335 333 331 329 328 329 327 324 320 318 314 312
129 212 102 156 162 197 240 261 230 211 172 186 201 200 201 205 209 209 212 218 221 220 228 231 215 194 181 159 27 5 351 343 338 332 329 327 328 327 326 324 323 322 322 320 318 315 313 310 307
274 208 169 208 238 250 154 258 15 80 179 189 203 208 215 221 220 221 226 230 231 230 232 229 226 222 220 249 295 313 321 323 324 324 325 325 326 326 324 322 320 319 318 316 314 312 309 306 304